STARLINK-1707, 46359

Orbit data source: Space-Track

STARLINK-1707, 46359 is a payload satellite owned by SpaceX/Seattle (US) in LEO that was launched on Thu, 03 Sep 2020 UTC via an FALCON 9 launch vehicle from the Air Force Eastern Test Range (AFETR). Payload-class satellites include a variety of spacecraft equipped with specific instruments for various scientific and technological missions. These include communications satellites like Starlink; space stations such as the ISS; scientific satellites like the Hubble; Earth observation satellites from companies like Planet Labs, Umbra, and HawkEye 360; GPS; miniature CubeSats for education and research; and military/defense satellites.

Loading next visibility...
Identifier
46359, 2020-062AL
Orbit
LEO
Country
Flag of USUS
Related business
Manufacturer
SpaceX/Seattle
Mission
Partially operational Commercial Communications
Bus & Motor
STARLINK, Unknown motor
Mass
260 kg wet, ~248 kg dry
Launch date (UTC)
2020-09-03 (5 years ago)
Launch vehicle
FALCON 9
Launch site
Air Force Eastern Test Range (AFETR)
Object type
Payload
Rocket body
Debris
Shape & HBR
Box + 1 Pan, 10.1 m
Radar Cross Section
13.562 m², Large (>1 m²)

Expand to show TLE details & history
Last TLE update: 15 hours ago

TLE from 15 hours ago
0 STARLINK-1707
1 46359U 20062AL  25299.01497637  .00060347  00000-0  19445-2 0  9996
2 46359  53.0355 197.4828 0009170  82.9266 277.2776 15.31599750284905
Epoch: 2025-10-26T00:21Z
TLE epoch observation values (Epoch: 2025-10-26T00:21:33.958Z)
Latitude
-0.00004°
Longitude
157.45403°
Altitude
471.136 km
Speed
7.632 km/s
True Right ascension
13h 09m 55s
True Declination
0° 00' 00"
Sunlit
Object was in daylight at epoch
Visualization orbit readout
Latitude
Unknown
Longitude
Unknown
Altitude
Unknown
Speed
Unknown
Apparent Right ascension
Unknown
Apparent Declination
Unknown
Sunlit
N/A
Visualization observer readout
Local Sidereal Time
10:26:10
Azimuth
Unknown
Elevation
Unknown
Doppler factor
Unknown
Orbital elements
Apogee altitude
477.597 km
Perigee altitude
465.035 km
Semi-major axis
6,849.453 km
Eccentricity
0.00092
Inclination
53.0355°
RAAN
197.4828°
Arg. of periapsis
82.9266°
True anomaly
277.17335°
Mean anomaly
277.2776°
Eccentric anomaly
277.22548°
Mean motion
3.82877 °/min
Orbital period
94.02 mins
BSTAR
0.0019445
Loading maneuver chart data...
Computing Atmospheric mass density...

Documentation

Showing up to 5 results
|